Regional Weather Roundup
Issued by NWS Northern Indiana

Home | Current Version | Previous Version | Text Only | Print | Product List | Glossary Off
Versions: 1 2 3 4 5 6 7 8 9 10 11 12 13 14 15 16 17 18 19 20 21 22 23 24 25 26 27 28 29 30 31 32 33 34 35 36 37 38 39 40 41 42 43 44 45 46 47 48 49 50

000
ASUS43 KIWX 130310
RWRIWX

KIWX WEATHER ROUNDUP
NATIONAL WEATHER SERVICE NORTHERN INDIANA
1100 PM EDT SAT JUL 12 2014

NOTE: "FAIR" INDICATES FEW OR NO CLOUDS BELOW 12,000 FEET WITH NO
SIGNIFICANT WEATHER AND/OR OBSTRUCTIONS TO VISIBILITY.

* THESE STATIONS ARE NOT UNDER NWS QUALITY CONTROL. THEY ALSO MAY NOT
  REPORT WEATHER SUCH AS PRECIPITATION OR FOG.

INZ001>027-130400-
NORTHERN INDIANA

CITY           SKY/WX    TMP DP  RH WIND       PRES   REMARKS
GARY*          LGT RAIN  77  75  92 S8        29.87F
VALPARAISO     MOCLDY    74  72  93 VRB5      29.92S
MICHIGAN CITY* LGT RAIN  73  70  88 S8        29.90F
LAPORTE*       CLOUDY    73  72  95 S5        29.92F
KNOX*          MOCLDY    74  70  86 S9        29.91F
SOUTH BEND     MOCLDY    76  70  82 S13       29.92F
GOSHEN         CLOUDY    76  70  82 S6        29.95F
MONTICELLO*    PTCLDY    74  73  94 S8        29.94F
LOGANSPORT*    PTCLDY    72  68  88 S7        29.96S
ROCHESTER*     MOCLDY    75  70  83 S5        29.95F
WARSAW*        MOCLDY    73  70  88 SE3       29.95F
ANGOLA*        CLOUDY    73  66  78 S7        29.97F
FORT WAYNE     MOCLDY    73  68  84 S7        29.98F
HUNTINGTON*    PTCLDY    73  68  86 S5        29.97F
MARION*        PTCLDY    72  68  89 S8        29.99F

$$
INZ028>050-130400-
CENTRAL INDIANA

CITY           SKY/WX    TMP DP  RH WIND       PRES   REMARKS
LAFAYETTE      PTCLDY    75  72  90 S7        29.96S
KOKOMO*        PTCLDY    73  70  88 SW12      29.98S
MUNCIE*        MOCLDY    76  68  76 S7        30.01S
INDIANAPOLIS   MOCLDY    74  69  85 S8        30.00F

$$
MIZ043>046-050>051-056>058-064>065-071>073-077>080-130400-
SOUTHWEST LOWER MICHIGAN

CITY           SKY/WX    TMP DP  RH WIND       PRES   REMARKS
BATTLE CREEK   CLOUDY    74  68  81 S12       29.93F
BENTON HARBOR  LGT RAIN  74  71  91 S7        29.87F
COLDWATER*     CLOUDY    76  68  78 S6        29.96S
HILLSDALE*     CLOUDY    74  70  88 CALM      29.97F
HOLLAND        MOCLDY    73  70  90 S7        29.87F
GRAND RAPIDS   CLOUDY    73  70  90 S8        29.88F
KALAMAZOO      CLOUDY    74  68  81 S9        29.92F
STURGIS*       CLOUDY    73  70  88 S9        29.94F
THREE RIVERS*  FAIR      74  70  87 S10G17    29.93F

$$
OHZ001>008-015>018-024>025-130400-
NORTHWEST OHIO

CITY           SKY/WX    TMP DP  RH WIND       PRES   REMARKS
WAUSEON*       CLOUDY    75  68  78 S6        29.97F
DEFIANCE       MOCLDY    74  66  76 S3        29.97F
FINDLAY        PTCLDY    73  68  84 S7        30.00F
TOLEDO EXPRESS MOCLDY    75  67  76 S5        29.97F
TOLEDO METCALF PTCLDY    76  67  73 SW8       29.99F
LIMA           MOCLDY    76  69  79 S7        30.01F

$$
&&



USA.gov is the U.S. government's official web portal to all federal, state and local government web resources and services.